WBANNO,USDM_WEEK,LONGITUDE,LATITUDE,SMVWC_5_CM_MEAN,SMANOM_5_CM_MEAN,SMPERC_5_CM_30COUNTS,SMPERC_5_CM_70COUNTS,SMVWC_10_CM_MEAN,SMANOM_10_CM_MEAN,SMPERC_10_CM_30COUNTS,SMPERC_10_CM_70COUNTS,SMVWC_20_CM_MEAN,SMANOM_20_CM_MEAN,SMPERC_20_CM_30COUNTS,SMPERC_20_CM_70COUNTS,SMVWC_50_CM_MEAN,SMANOM_50_CM_MEAN,SMPERC_50_CM_30COUNTS,SMPERC_50_CM_70COUNTS,SMVWC_100_CM_MEAN,SMANOM_100_CM_MEAN,SMPERC_100_CM_30COUNTS,SMPERC_100_CM_70COUNTS,SMVWC_TOP_CM_MEAN,SMANOM_TOP_CM_MEAN,SMPERC_TOP_CM_30COUNTS,SMPERC_TOP_CM_70COUNTS,SMVWC_COLUMN_CM_MEAN,SMANOM_COLUMN_CM_MEAN,SMPERC_COLUMN_CM_30COUNTS,SMPERC_COLUMN_CM_70COUNTS
53974,20090604,-96.61,39.1,,,,,,,,,,,,,,,,,,,,,,,,,,,,
53974,20090605,-96.61,39.1,,,,,,,,,,,,,,,,,,,,,,,,,,,,
53974,20090606,-96.61,39.1,,,,,,,,,,,,,,,,,,,,,,,,,,,,
53974,20090607,-96.61,39.1,,,,,,,,,,,,,,,,,,,,,,,,,,,,
53974,20090608,-96.61,39.1,,,,,,,,,,,,,,,,,,,,,,,,,,,,
53974,20090609,-96.61,39.1,,,,,,,,,,,,,,,,,,,,,,,,,,,,
53974,20090610,-96.61,39.1,0.46,0.58,0,1,0.445,0.39,0,0.597,0.34,-0.24,0,0.097,,,,,,,,,0.453,0.49,0,0.766,,,,
53974,20090611,-96.61,39.1,0.462,0.6,0,1,0.447,0.41,0,0.671,0.363,-0.14,0,0.15,,,,,,,,,0.455,0.51,0,0.808,,,,
53974,20090612,-96.61,39.1,0.463,0.63,0,1,0.45,0.45,0,0.738,0.387,-0.03,0,0.238,,,,,,,,,0.456,0.55,0,0.869,,,,
53974,20090613,-96.61,39.1,0.464,0.67,0,1,0.452,0.48,0,0.827,0.41,0.08,0,0.327,,,,,,,,,0.458,0.59,0,0.94,,,,
53974,20090614,-96.61,39.1,0.463,0.7,0,1,0.454,0.51,0,0.923,0.432,0.18,0,0.429,,,,,,,,,0.459,0.63,0,1,,,,
53974,20090615,-96.61,39.1,0.462,0.72,0,1,0.454,0.54,0,0.97,0.454,0.28,0,0.536,,,,,,,,,0.458,0.66,0,1,,,,
53974,20090616,-96.61,39.1,0.468,0.79,0,1,0.46,0.6,0,1,0.489,0.43,0,0.679,,,,,,,,,0.464,0.73,0,1,,,,
53974,20090617,-96.61,39.1,0.471,0.85,0,1,0.465,0.66,0,1,0.504,0.5,0,0.732,,,,,,,,,0.468,0.79,0,1,,,,
53974,20090618,-96.61,39.1,0.473,0.91,0,1,0.468,0.71,0,1,0.515,0.56,0,0.815,,,,,,,,,0.47,0.85,0,1,,,,
53974,20090619,-96.61,39.1,0.472,0.96,0,1,0.469,0.75,0,1,0.525,0.62,0,0.869,,,,,,,,,0.47,0.89,0,1,,,,
53974,20090620,-96.61,39.1,0.47,1,0,1,0.469,0.79,0,1,0.535,0.67,0,0.923,,,,,,,,,0.47,0.93,0,1,,,,
53974,20090621,-96.61,39.1,0.474,1.07,0,1,0.472,0.85,0,1,0.546,0.73,0,0.964,,,,,,,,,0.473,0.99,0,1,,,,
53974,20090622,-96.61,39.1,0.48,1.15,0,1,0.478,0.92,0,1,0.561,0.81,0,1,,,,,,,,,0.479,1.06,0,1,,,,
53974,20090623,-96.61,39.1,0.477,1.17,0,1,0.478,0.96,0,1,0.563,0.83,0,1,,,,,,,,,0.478,1.09,0,1,,,,
53974,20090624,-96.61,39.1,0.471,1.17,0,1,0.475,0.98,0,1,0.563,0.85,0,1,,,,,,,,,0.473,1.09,0,1,,,,
53974,20090625,-96.61,39.1,0.468,1.17,0,1,0.474,1,0,1,0.565,0.87,0,1,,,,,,,,,0.471,1.1,0,1,,,,
53974,20090626,-96.61,39.1,0.468,1.18,0,1,0.476,1.03,0,1,0.571,0.9,0,1,,,,,,,,,0.472,1.12,0,1,,,,
53974,20090627,-96.61,39.1,0.468,1.19,0,1,0.477,1.04,0,1,0.575,0.93,0,1,,,,,,,,,0.472,1.13,0,1,,,,
53974,20090628,-96.61,39.1,0.46,1.16,0,1,0.475,1.04,0,1,0.576,0.95,0,1,,,,,,,,,0.467,1.12,0,1,,,,
53974,20090629,-96.61,39.1,0.447,1.1,0,1,0.467,1.01,0,1,0.571,0.94,0,1,,,,,,,,,0.457,1.07,0,1,,,,
53974,20090630,-96.61,39.1,0.432,1.03,0,1,0.458,0.97,0,1,0.567,0.94,0,1,,,,,,,,,0.445,1.01,0,1,,,,
53974,20090701,-96.61,39.1,0.414,0.94,0,0.976,0.447,0.91,0,1,0.562,0.93,0,1,,,,,,,,,0.43,0.94,0,0.994,,,,
53974,20090702,-96.61,39.1,0.392,0.83,0,0.833,0.43,0.83,0,0.923,0.553,0.91,0,1,,,,,,,,,0.411,0.84,0,0.851,,,,
53974,20090703,-96.61,39.1,0.366,0.7,0,0.69,0.41,0.72,0,0.78,0.539,0.86,0,1,,,,,,,,,0.388,0.72,0,0.708,,,,
53974,20090704,-96.61,39.1,0.347,0.61,0,0.595,0.393,0.63,0,0.679,0.528,0.83,0,1,,,,,,,,,0.37,0.63,0,0.607,,,,
53974,20090705,-96.61,39.1,0.346,0.62,0,0.595,0.383,0.58,0,0.679,0.523,0.82,0,1,,,,,,,,,0.365,0.61,0,0.607,,,,
53974,20090706,-96.61,39.1,0.346,0.63,0,0.595,0.373,0.54,0,0.679,0.517,0.8,0,1,,,,,,,,,0.36,0.59,0,0.607,,,,
53974,20090707,-96.61,39.1,0.348,0.65,0,0.595,0.366,0.5,0,0.673,0.508,0.76,0,1,,,,,,,,,0.357,0.58,0,0.607,,,,
53974,20090708,-96.61,39.1,0.351,0.68,0,0.619,0.36,0.47,0,0.542,0.499,0.73,0,1,,,,,,,,,0.355,0.58,0,0.613,,,,
53974,20090709,-96.61,39.1,0.353,0.7,0,0.762,0.356,0.46,0,0.476,0.489,0.69,0,1,,,,,,,,,0.354,0.59,0,0.744,,,,
53974,20090710,-96.61,39.1,0.354,0.72,0,0.857,0.353,0.46,0,0.476,0.477,0.64,0,0.905,,,,,,,,,0.353,0.6,0,0.744,,,,
53974,20090711,-96.61,39.1,0.348,0.7,0,0.81,0.347,0.45,0,0.435,0.461,0.58,0,0.762,,,,,,,,,0.348,0.59,0,0.702,,,,
53974,20090712,-96.61,39.1,0.326,0.61,0,0.673,0.336,0.4,0,0.298,0.436,0.48,0,0.625,,,,,,,,,0.331,0.52,0,0.565,,,,
53974,20090713,-96.61,39.1,0.323,0.6,0,0.673,0.331,0.4,0,0.298,0.422,0.43,0,0.571,,,,,,,,,0.327,0.52,0,0.565,,,,
53974,20090714,-96.61,39.1,0.318,0.6,0,0.673,0.326,0.4,0,0.298,0.406,0.38,0,0.429,,,,,,,,,0.322,0.51,0,0.565,,,,
53974,20090715,-96.61,39.1,0.314,0.59,0,0.673,0.321,0.41,0,0.417,0.388,0.32,0,0.286,,,,,,,,,0.317,0.51,0,0.565,,,,
53974,20090716,-96.61,39.1,0.314,0.62,0,0.673,0.317,0.42,0,0.512,0.372,0.28,0,0.143,,,,,,,,,0.316,0.53,0,0.577,,,,
53974,20090717,-96.61,39.1,0.318,0.65,0,0.72,0.315,0.43,0,0.595,0.359,0.25,0,0.095,,,,,,,,,0.316,0.55,0,0.72,,,,
53974,20090718,-96.61,39.1,0.321,0.68,0,0.863,0.314,0.45,0,0.69,0.349,0.23,0,0.095,,,,,,,,,0.317,0.57,0,0.863,,,,
53974,20090719,-96.61,39.1,0.322,0.7,0,0.976,0.312,0.47,0,0.726,0.341,0.22,0,0.089,,,,,,,,,0.317,0.59,0,0.982,,,,
53974,20090720,-96.61,39.1,0.306,0.62,0,0.833,0.306,0.45,0,0.583,0.323,0.17,0,0,,,,,,,,,0.306,0.54,0,0.839,,,,
53974,20090721,-96.61,39.1,0.307,0.64,0,0.804,0.307,0.48,0,0.518,0.325,0.21,0,0.06,,,,,,,,,0.307,0.56,0,0.81,,,,
53974,20090722,-96.61,39.1,0.323,0.73,0,0.804,0.319,0.57,0,0.53,0.346,0.35,0,0.202,,,,,,,,,0.321,0.64,0,0.81,,,,
53974,20090723,-96.61,39.1,0.334,0.79,0,0.804,0.33,0.64,0,0.577,0.365,0.48,0,0.345,,,,,,,,,0.332,0.71,0,0.81,,,,
53974,20090724,-96.61,39.1,0.343,0.84,0,0.804,0.34,0.71,0,0.637,0.382,0.59,0,0.488,,,,,,,,,0.341,0.76,0,0.81,,,,
53974,20090725,-96.61,39.1,0.349,0.88,0,0.804,0.349,0.76,0,0.685,0.395,0.69,0,0.631,,,,,,,,,0.349,0.81,0,0.81,,,,
53974,20090726,-96.61,39.1,0.356,0.92,0,0.827,0.356,0.81,0,0.786,0.406,0.78,0,0.774,,,,,,,,,0.356,0.85,0,0.827,,,,
53974,20090727,-96.61,39.1,0.363,0.96,0,0.97,0.362,0.84,0,0.929,0.417,0.86,0,0.917,,,,,,,,,0.362,0.88,0,0.97,,,,
53974,20090728,-96.61,39.1,0.354,0.9,0,1,0.36,0.82,0,1,0.41,0.85,0,1,,,,,,,,,0.357,0.85,0,1,,,,
53974,20090729,-96.61,39.1,0.351,0.89,0,0.988,0.354,0.77,0,1,0.386,0.75,0,1,,,,,,,,,0.352,0.81,0,1,,,,
53974,20090730,-96.61,39.1,0.349,0.87,0,0.988,0.349,0.73,0,1,0.366,0.66,0,1,,,,,,,,,0.349,0.79,0,1,,,,
53974,20090731,-96.61,39.1,0.347,0.86,0,0.988,0.344,0.7,0,1,0.349,0.59,0,1,,,,,,,,,0.345,0.76,0,1,,,,
53974,20090801,-96.61,39.1,0.348,0.86,0,0.988,0.341,0.67,0,1,0.335,0.53,0,1,,,,,,,,,0.345,0.75,0,1,,,,
53974,20090802,-96.61,39.1,0.358,0.92,0,0.988,0.344,0.68,0,1,0.324,0.48,0,0.988,,,,,,,,,0.351,0.79,0,1,,,,
53974,20090803,-96.61,39.1,0.365,0.96,0,0.988,0.345,0.69,0,1,0.315,0.44,0,0.875,,,,,,,,,0.355,0.81,0,1,,,,
53974,20090804,-96.61,39.1,0.372,1,0,0.988,0.348,0.7,0,1,0.309,0.41,0,0.732,,,,,,,,,0.36,0.83,0,1,,,,
53974,20090805,-96.61,39.1,0.369,0.98,0,1,0.347,0.69,0,1,0.304,0.38,0,0.589,,,,,,,,,0.358,0.82,0,1,,,,
53974,20090806,-96.61,39.1,0.364,0.95,0,1,0.346,0.67,0,1,0.299,0.35,0,0.446,,,,,,,,,0.355,0.8,0,1,,,,
53974,20090807,-96.61,39.1,0.359,0.91,0,1,0.344,0.65,0,1,0.295,0.33,0,0.304,,,,,,,,,0.351,0.77,0,1,,,,
53974,20090808,-96.61,39.1,0.35,0.85,0,0.994,0.34,0.62,0,0.875,0.291,0.3,0,0.161,,,,,,,,,0.345,0.72,0,0.935,,,,
53974,20090809,-96.61,39.1,0.33,0.73,0,0.851,0.33,0.56,0,0.732,0.285,0.26,0,0.03,,,,,,,,,0.33,0.62,0,0.792,,,,
53974,20090810,-96.61,39.1,0.317,0.63,0,0.768,0.322,0.49,0,0.589,0.278,0.22,0,0,,,,,,,,,0.32,0.54,0,0.649,,,,
53974,20090811,-96.61,39.1,0.309,0.57,0,0.625,0.313,0.43,0,0.446,0.271,0.19,0,0,,,,,,,,,0.311,0.47,0,0.506,,,,
53974,20090812,-96.61,39.1,0.291,0.46,0,0.482,0.303,0.35,0,0.304,0.263,0.15,0,0,,,,,,,,,0.297,0.37,0,0.363,,,,
53974,20090813,-96.61,39.1,0.276,0.35,0,0.339,0.294,0.28,0,0.161,0.255,0.11,0,0,,,,,,,,,0.285,0.28,0,0.22,,,,
53974,20090814,-96.61,39.1,0.262,0.26,0,0.196,0.286,0.21,0,0.018,0.247,0.06,0,0,,,,,,,,,0.274,0.2,0,0.077,,,,
53974,20090815,-96.61,39.1,0.253,0.19,0,0.06,0.279,0.14,0,0,0.24,0.02,0,0,,,,,,,,,0.266,0.14,0,0,,,,
53974,20090816,-96.61,39.1,0.247,0.15,0,0.06,0.274,0.09,0,0,0.234,-0.01,0,0,,,,,,,,,0.26,0.09,0,0,,,,
53974,20090817,-96.61,39.1,0.246,0.13,0,0.042,0.273,0.06,0,0.006,0.233,-0.02,0,0.006,,,,,,,,,0.259,0.08,0,0.018,,,,
53974,20090818,-96.61,39.1,0.267,0.26,0,0.185,0.29,0.15,0,0.149,0.261,0.09,0,0.149,,,,,,,,,0.278,0.2,0,0.161,,,,
53974,20090819,-96.61,39.1,0.288,0.39,0,0.327,0.305,0.23,0,0.292,0.285,0.17,0,0.256,,,,,,,,,0.296,0.31,0,0.304,,,,
53974,20090820,-96.61,39.1,0.313,0.55,0,0.47,0.323,0.32,0,0.435,0.312,0.28,0,0.31,,,,,,,,,0.318,0.45,0,0.446,,,,
53974,20090821,-96.61,39.1,0.34,0.72,0,0.613,0.343,0.43,0,0.577,0.345,0.41,0,0.452,,,,,,,,,0.341,0.6,0,0.589,,,,
53974,20090822,-96.61,39.1,0.364,0.87,0,0.756,0.361,0.54,0,0.72,0.374,0.52,0,0.595,,,,,,,,,0.363,0.73,0,0.732,,,,
53974,20090823,-96.61,39.1,0.385,1.01,0,0.899,0.377,0.63,0,0.863,0.402,0.62,0,0.661,,,,,,,,,0.381,0.85,0,0.875,,,,
53974,20090824,-96.61,39.1,0.397,1.08,0,1,0.39,0.7,0,1,0.424,0.7,0,0.655,,,,,,,,,0.393,0.93,0,1,,,,
53974,20090825,-96.61,39.1,0.381,0.99,0,1,0.382,0.66,0,0.994,0.414,0.65,0,0.512,,,,,,,,,0.381,0.86,0,1,,,,
53974,20090826,-96.61,39.1,0.367,0.9,0,1,0.374,0.61,0,0.863,0.407,0.62,0,0.405,,,,,,,,,0.37,0.79,0,0.97,,,,
53974,20090827,-96.61,39.1,0.369,0.91,0,1,0.376,0.63,0,0.863,0.418,0.65,0,0.494,,,,,,,,,0.372,0.8,0,0.97,,,,
53974,20090828,-96.61,39.1,0.368,0.9,0,1,0.374,0.62,0,0.863,0.419,0.64,0,0.494,,,,,,,,,0.371,0.79,0,0.97,,,,
53974,20090829,-96.61,39.1,0.368,0.9,0,1,0.374,0.62,0,0.863,0.421,0.64,0,0.494,,,,,,,,,0.371,0.78,0,0.97,,,,
53974,20090830,-96.61,39.1,0.37,0.91,0,1,0.374,0.63,0,0.863,0.425,0.64,0,0.565,,,,,,,,,0.372,0.79,0,0.97,,,,
53974,20090831,-96.61,39.1,0.373,0.92,0,1,0.375,0.63,0,0.863,0.428,0.65,0,0.595,,,,,,,,,0.374,0.8,0,0.97,,,,
53974,20090901,-96.61,39.1,0.378,0.94,0,1,0.377,0.63,0,0.81,0.434,0.64,0,0.595,,,,,,,,,0.377,0.81,0,0.97,,,,
53974,20090902,-96.61,39.1,0.382,0.95,0,1,0.379,0.63,0,0.798,0.44,0.63,0,0.595,,,,,,,,,0.381,0.82,0,0.952,,,,
53974,20090903,-96.61,39.1,0.366,0.85,0,0.988,0.37,0.57,0,0.655,0.424,0.54,0,0.452,,,,,,,,,0.368,0.73,0,0.81,,,,
53974,20090904,-96.61,39.1,0.357,0.78,0,0.887,0.366,0.52,0,0.554,0.419,0.48,0,0.351,,,,,,,,,0.361,0.68,0,0.708,,,,
53974,20090905,-96.61,39.1,0.361,0.79,0,0.887,0.369,0.52,0,0.554,0.427,0.48,0,0.351,,,,,,,,,0.365,0.68,0,0.708,,,,
53974,20090906,-96.61,39.1,0.366,0.82,0,0.887,0.372,0.52,0,0.554,0.433,0.47,0,0.357,,,,,,,,,0.369,0.7,0,0.708,,,,
53974,20090907,-96.61,39.1,0.371,0.85,0,0.887,0.375,0.52,0,0.554,0.438,0.47,0,0.47,,,,,,,,,0.373,0.71,0,0.708,,,,
53974,20090908,-96.61,39.1,0.376,0.88,0,0.887,0.379,0.53,0,0.613,0.445,0.49,0,0.595,,,,,,,,,0.377,0.74,0,0.708,,,,
53974,20090909,-96.61,39.1,0.382,0.92,0,0.887,0.382,0.55,0,0.756,0.452,0.51,0,0.702,,,,,,,,,0.382,0.77,0,0.756,,,,
53974,20090910,-96.61,39.1,0.389,0.97,0,0.899,0.386,0.58,0,0.899,0.46,0.54,0,0.827,,,,,,,,,0.388,0.81,0,0.899,,,,
53974,20090911,-96.61,39.1,0.392,1,0,1,0.387,0.58,0,1,0.462,0.55,0,0.905,,,,,,,,,0.389,0.83,0,1,,,,
53974,20090912,-96.61,39.1,0.383,0.96,0,1,0.381,0.56,0,1,0.453,0.53,0,0.821,,,,,,,,,0.382,0.8,0,1,,,,
53974,20090913,-96.61,39.1,0.387,0.99,0,1,0.385,0.6,0,1,0.459,0.56,0,0.821,,,,,,,,,0.386,0.83,0,1,,,,
53974,20090914,-96.61,39.1,0.389,1.01,0,1,0.388,0.62,0,1,0.463,0.57,0,0.821,,,,,,,,,0.388,0.86,0,1,,,,
53974,20090915,-96.61,39.1,0.392,1.03,0,1,0.39,0.64,0,1,0.466,0.59,0,0.839,,,,,,,,,0.391,0.88,0,1,,,,
53974,20090916,-96.61,39.1,0.395,1.05,0,1,0.391,0.66,0,1,0.468,0.6,0,0.875,,,,,,,,,0.393,0.9,0,1,,,,
53974,20090917,-96.61,39.1,0.395,1.06,0,1,0.392,0.66,0,1,0.47,0.61,0,0.893,,,,,,,,,0.394,0.9,0,1,,,,
53974,20090918,-96.61,39.1,0.395,1.06,0,1,0.392,0.66,0,1,0.471,0.62,0,0.917,,,,,,,,,0.393,0.9,0,1,,,,
53974,20090919,-96.61,39.1,0.392,1.05,0,1,0.39,0.65,0,1,0.47,0.62,0,1,,,,,,,,,0.391,0.89,0,1,,,,
53974,20090920,-96.61,39.1,0.377,0.96,0,1,0.379,0.59,0,1,0.457,0.57,0,1,,,,,,,,,0.378,0.8,0,1,,,,
53974,20090921,-96.61,39.1,0.363,0.88,0,1,0.371,0.53,0,0.994,0.446,0.53,0,0.982,,,,,,,,,0.367,0.73,0,1,,,,
53974,20090922,-96.61,39.1,0.37,0.91,0,1,0.378,0.56,0,0.994,0.456,0.58,0,0.982,,,,,,,,,0.374,0.76,0,1,,,,
53974,20090923,-96.61,39.1,0.377,0.94,0,1,0.383,0.58,0,0.994,0.463,0.62,0,0.982,,,,,,,,,0.38,0.79,0,1,,,,
53974,20090924,-96.61,39.1,0.384,0.98,0,1,0.388,0.6,0,0.994,0.469,0.65,0,0.982,,,,,,,,,0.386,0.81,0,1,,,,
53974,20090925,-96.61,39.1,0.392,1.01,0,1,0.393,0.62,0,0.994,0.474,0.67,0,0.982,,,,,,,,,0.393,0.84,0,1,,,,
53974,20090926,-96.61,39.1,0.404,1.08,0,1,0.401,0.66,0,0.994,0.482,0.71,0,0.982,,,,,,,,,0.403,0.89,0,1,,,,
53974,20090927,-96.61,39.1,0.419,1.16,0,1,0.411,0.71,0,0.994,0.492,0.75,0,0.982,,,,,,,,,0.415,0.95,0,1,,,,
53974,20090928,-96.61,39.1,0.433,1.23,0,1,0.42,0.76,0,1,0.501,0.79,0,1,,,,,,,,,0.427,1.02,0,1,,,,
53974,20090929,-96.61,39.1,0.425,1.17,0,1,0.414,0.72,0,1,0.491,0.75,0,1,,,,,,,,,0.419,0.97,0,1,,,,
53974,20090930,-96.61,39.1,0.418,1.12,0,1,0.408,0.69,0,1,0.483,0.72,0,1,,,,,,,,,0.413,0.94,0,1,,,,
53974,20091001,-96.61,39.1,0.41,1.07,0,1,0.404,0.67,0,1,0.477,0.7,0,1,,,,,,,,,0.407,0.9,0,1,,,,
53974,20091002,-96.61,39.1,0.402,1.01,0,1,0.4,0.64,0,1,0.472,0.69,0,1,,,,,,,,,0.401,0.87,0,1,,,,
53974,20091003,-96.61,39.1,0.389,0.94,0,1,0.392,0.6,0,1,0.464,0.67,0,1,,,,,,,,,0.391,0.81,0,1,,,,
53974,20091004,-96.61,39.1,0.374,0.84,0,1,0.382,0.55,0,1,0.455,0.64,0,1,,,,,,,,,0.378,0.73,0,1,,,,
53974,20091005,-96.61,39.1,0.36,0.75,0,1,0.373,0.5,0,0.994,0.446,0.61,0,1,,,,,,,,,0.366,0.66,0,1,,,,
53974,20091006,-96.61,39.1,0.347,0.67,0,0.893,0.365,0.46,0,0.905,0.438,0.58,0,1,,,,,,,,,0.356,0.6,0,0.881,,,,
53974,20091007,-96.61,39.1,0.335,0.6,0,0.75,0.358,0.41,0,0.762,0.43,0.55,0,1,,,,,,,,,0.346,0.53,0,0.738,,,,
53974,20091008,-96.61,39.1,0.329,0.55,0,0.649,0.353,0.38,0,0.661,0.425,0.53,0,1,,,,,,,,,0.341,0.49,0,0.637,,,,
53974,20091009,-96.61,39.1,0.34,0.59,0,0.649,0.359,0.41,0,0.661,0.43,0.55,0,1,,,,,,,,,0.349,0.51,0,0.637,,,,
53974,20091010,-96.61,39.1,0.351,0.62,0,0.649,0.366,0.43,0,0.661,0.434,0.57,0,1,,,,,,,,,0.358,0.54,0,0.637,,,,
53974,20091011,-96.61,39.1,0.363,0.66,0,0.649,0.372,0.46,0,0.661,0.438,0.59,0,1,,,,,,,,,0.368,0.58,0,0.637,,,,
53974,20091012,-96.61,39.1,0.375,0.71,0,0.649,0.379,0.49,0,0.667,0.442,0.6,0,1,,,,,,,,,0.377,0.61,0,0.637,,,,
53974,20091013,-96.61,39.1,0.389,0.76,0,0.756,0.386,0.52,0,0.756,0.446,0.63,0,1,,,,,,,,,0.388,0.65,0,0.756,,,,
53974,20091014,-96.61,39.1,0.408,0.85,0,0.899,0.399,0.58,0,0.899,0.458,0.68,0,1,,,,,,,,,0.403,0.72,0,0.899,,,,
53974,20091015,-96.61,39.1,0.425,0.93,0,1,0.413,0.66,0,1,0.473,0.75,0,1,,,,,,,,,0.419,0.79,0,1,,,,
53974,20091016,-96.61,39.1,0.426,0.93,0,1,0.417,0.68,0,1,0.478,0.77,0,1,,,,,,,,,0.421,0.8,0,1,,,,
53974,20091017,-96.61,39.1,0.428,0.95,0,1,0.42,0.69,0,1,0.482,0.79,0,1,,,,,,,,,0.424,0.81,0,1,,,,
53974,20091018,-96.61,39.1,0.432,0.97,0,1,0.424,0.71,0,1,0.488,0.8,0,1,,,,,,,,,0.428,0.83,0,1,,,,
53974,20091019,-96.61,39.1,0.435,0.99,0,1,0.428,0.74,0,1,0.493,0.82,0,1,,,,,,,,,0.432,0.85,0,1,,,,
53974,20091020,-96.61,39.1,0.438,1.01,0,1,0.431,0.75,0,1,0.5,0.83,0,1,,,,,,,,,0.435,0.87,0,1,,,,
53974,20091021,-96.61,39.1,0.436,1.01,0,1,0.43,0.75,0,1,0.499,0.82,0,1,,,,,,,,,0.433,0.88,0,1,,,,
53974,20091022,-96.61,39.1,0.438,1.02,0,1,0.43,0.75,0,1,0.499,0.8,0,1,,,,,,,,,0.434,0.89,0,1,,,,
53974,20091023,-96.61,39.1,0.444,1.06,0,1,0.434,0.78,0,1,0.506,0.81,0,1,,,,,,,,,0.439,0.93,0,1,,,,
53974,20091024,-96.61,39.1,0.447,1.09,0,1,0.439,0.81,0,1,0.515,0.83,0,1,,,,,,,,,0.443,0.97,0,1,,,,
53974,20091025,-96.61,39.1,0.45,1.11,0,1,0.443,0.83,0,1,0.522,0.85,0,1,,,,,,,,,0.447,1,0,1,,,,
53974,20091026,-96.61,39.1,0.454,1.14,0,1,0.447,0.86,0,1,0.53,0.87,0,1,,,,,,,,,0.451,1.04,0,1,,,,
53974,20091027,-96.61,39.1,0.458,1.17,0,1,0.452,0.9,0,1,0.538,0.9,0,1,,,,,,,,,0.455,1.07,0,1,,,,
53974,20091028,-96.61,39.1,0.462,1.2,0,1,0.455,0.93,0,1,0.543,0.91,0,1,,,,,,,,,0.459,1.11,0,1,,,,
53974,20091029,-96.61,39.1,0.46,1.21,0,1,0.456,0.94,0,1,0.543,0.91,0,1,,,,,,,,,0.458,1.11,0,1,,,,
53974,20091030,-96.61,39.1,0.464,1.24,0,1,0.458,0.96,0,1,0.542,0.9,0,1,,,,,,,,,0.461,1.13,0,1,,,,
53974,20091031,-96.61,39.1,0.468,1.28,0,1,0.46,0.99,0,1,0.543,0.9,0,1,,,,,,,,,0.464,1.16,0,1,,,,
53974,20091101,-96.61,39.1,0.471,1.3,0,1,0.463,1.02,0,1,0.547,0.9,0,1,,,,,,,,,0.467,1.18,0,1,,,,
53974,20091102,-96.61,39.1,0.472,1.32,0,1,0.465,1.04,0,1,0.548,0.9,0,1,,,,,,,,,0.468,1.2,0,1,,,,
53974,20091103,-96.61,39.1,0.473,1.33,0,1,0.467,1.06,0,1,0.549,0.9,0,1,,,,,,,,,0.47,1.21,0,1,,,,
53974,20091104,-96.61,39.1,0.475,1.35,0,1,0.469,1.08,0,1,0.553,0.91,0,1,,,,,,,,,0.472,1.23,0,1,,,,
53974,20091105,-96.61,39.1,0.476,1.36,0,1,0.471,1.1,0,1,0.555,0.92,0,1,,,,,,,,,0.474,1.25,0,1,,,,
53974,20091106,-96.61,39.1,0.468,1.32,0,1,0.466,1.07,0,1,0.549,0.9,0,1,,,,,,,,,0.467,1.22,0,1,,,,
53974,20091107,-96.61,39.1,0.463,1.28,0,1,0.462,1.06,0,1,0.544,0.87,0,1,,,,,,,,,0.462,1.2,0,1,,,,
53974,20091108,-96.61,39.1,0.46,1.26,0,1,0.458,1.05,0,1,0.538,0.85,0,1,,,,,,,,,0.459,1.19,0,1,,,,
53974,20091109,-96.61,39.1,0.458,1.25,0,1,0.455,1.04,0,1,0.533,0.83,0,1,,,,,,,,,0.457,1.18,0,1,,,,
53974,20091110,-96.61,39.1,0.459,1.26,0,1,0.455,1.06,0,1,0.531,0.83,0,1,,,,,,,,,0.457,1.19,0,1,,,,
53974,20091111,-96.61,39.1,0.462,1.27,0,1,0.457,1.08,0,1,0.534,0.83,0,1,,,,,,,,,0.459,1.2,0,1,,,,
53974,20091112,-96.61,39.1,0.463,1.27,0,1,0.459,1.11,0,1,0.538,0.84,0,1,,,,,,,,,0.461,1.21,0,1,,,,
53974,20091113,-96.61,39.1,0.465,1.27,0,1,0.461,1.12,0,1,0.541,0.85,0,1,,,,,,,,,0.463,1.22,0,1,,,,
53974,20091114,-96.61,39.1,0.466,1.26,0,1,0.463,1.13,0,1,0.542,0.85,0,1,,,,,,,,,0.464,1.21,0,1,,,,
53974,20091115,-96.61,39.1,0.467,1.24,0,1,0.463,1.12,0,1,0.542,0.84,0,1,,,,,,,,,0.465,1.19,0,1,,,,
53974,20091116,-96.61,39.1,0.47,1.23,0,1,0.466,1.12,0,1,0.546,0.84,0,1,,,,,,,,,0.468,1.18,0,1,,,,
53974,20091117,-96.61,39.1,0.475,1.24,0,1,0.47,1.12,0,1,0.549,0.84,0,1,,,,,,,,,0.473,1.17,0,1,,,,
53974,20091118,-96.61,39.1,0.479,1.22,0,1,0.472,1.09,0,1,0.548,0.82,0,1,,,,,,,,,0.476,1.14,0,1,,,,
53974,20091119,-96.61,39.1,0.484,1.21,0,1,0.474,1.06,0,1,0.548,0.8,0,1,,,,,,,,,0.479,1.12,0,1,,,,
53974,20091120,-96.61,39.1,0.487,1.19,0,1,0.476,1.02,0,1,0.551,0.77,0,1,,,,,,,,,0.481,1.09,0,1,,,,
53974,20091121,-96.61,39.1,0.488,1.16,0,1,0.479,0.99,0,1,0.555,0.76,0,1,,,,,,,,,0.483,1.05,0,1,,,,
53974,20091122,-96.61,39.1,0.491,1.14,0,1,0.482,0.96,0,1,0.559,0.74,0,1,,,,,,,,,0.486,1.03,0,1,,,,
53974,20091123,-96.61,39.1,0.49,1.11,0,1,0.482,0.92,0,1,0.56,0.72,0,1,,,,,,,,,0.486,0.99,0,1,,,,
53974,20091124,-96.61,39.1,0.485,1.06,0,1,0.48,0.87,0,1,0.558,0.69,0,1,,,,,,,,,0.483,0.94,0,1,,,,
53974,20091125,-96.61,39.1,0.486,1.04,0,1,0.48,0.84,0,1,0.558,0.67,0,1,,,,,,,,,0.483,0.93,0,1,,,,
53974,20091126,-96.61,39.1,0.485,1.03,0,1,0.481,0.83,0,1,0.557,0.66,0,1,,,,,,,,,0.483,0.91,0,1,,,,
53974,20091127,-96.61,39.1,0.485,1.02,0,1,0.481,0.82,0,1,0.556,0.65,0,1,,,,,,,,,0.483,0.9,0,1,,,,
53974,20091128,-96.61,39.1,0.485,1.01,0,1,0.48,0.81,0,1,0.555,0.65,0,1,,,,,,,,,0.483,0.89,0,1,,,,
53974,20091129,-96.61,39.1,0.485,1.01,0,1,0.48,0.8,0,1,0.555,0.65,0,1,,,,,,,,,0.483,0.89,0,1,,,,
53974,20091130,-96.61,39.1,0.485,1.01,0,1,0.478,0.8,0,1,0.554,0.65,0,1,,,,,,,,,0.482,0.88,0,1,,,,
53974,20091201,-96.61,39.1,0.481,0.99,0,1,0.476,0.78,0,1,0.551,0.64,0,1,,,,,,,,,0.478,0.86,0,1,,,,
53974,20091202,-96.61,39.1,0.473,0.94,0,1,0.47,0.75,0,1,0.547,0.61,0,1,,,,,,,,,0.472,0.82,0,1,,,,
53974,20091203,-96.61,39.1,0.466,0.9,0,1,0.464,0.72,0,1,0.541,0.57,0,1,,,,,,,,,0.465,0.79,0,1,,,,
53974,20091204,-96.61,39.1,0.461,0.86,0,1,0.458,0.69,0,1,0.534,0.53,0,0.994,,,,,,,,,0.46,0.76,0,1,,,,
53974,20091205,-96.61,39.1,0.456,0.81,0,1,0.452,0.65,0,1,0.526,0.47,0,0.899,,,,,,,,,0.454,0.72,0,1,,,,
53974,20091206,-96.61,39.1,0.452,0.77,0,1,0.446,0.62,0,1,0.518,0.42,0,0.756,,,,,,,,,0.449,0.68,0,1,,,,
53974,20091207,-96.61,39.1,0.449,0.73,0,1,0.443,0.6,0,1,0.512,0.37,0,0.613,,,,,,,,,0.446,0.65,0,1,,,,
53974,20091208,-96.61,39.1,0.447,0.7,0,1,0.44,0.58,0,1,0.508,0.33,0,0.47,,,,,,,,,0.444,0.62,0,1,,,,
53974,20091209,-96.61,39.1,0.446,0.67,0,1,0.438,0.56,0,1,0.505,0.3,0,0.327,,,,,,,,,0.442,0.58,0,1,,,,
53974,20091210,-96.61,39.1,0.447,0.64,0,1,0.438,0.54,0,1,0.503,0.28,0,0.185,,,,,,,,,0.442,0.55,0,1,,,,
53974,20091211,-96.61,39.1,0.448,0.63,0,1,0.439,0.53,0,1,0.504,0.27,0,0.083,,,,,,,,,0.443,0.53,0,1,,,,
53974,20091212,-96.61,39.1,0.451,0.63,0,1,0.442,0.53,0,1,0.509,0.28,0,0.167,,,,,,,,,0.446,0.53,0,1,,,,
53974,20091213,-96.61,39.1,0.456,0.64,0,1,0.447,0.54,0,1,0.516,0.3,0,0.31,,,,,,,,,0.451,0.56,0,1,,,,
53974,20091214,-96.61,39.1,0.463,0.67,0,1,0.454,0.57,0,1,0.524,0.33,0,0.452,,,,,,,,,0.458,0.61,0,1,,,,
53974,20091215,-96.61,39.1,0.47,0.71,0,1,0.461,0.61,0,1,0.532,0.36,0,0.595,,,,,,,,,0.466,0.67,0,1,,,,
53974,20091216,-96.61,39.1,0.476,0.73,0,1,0.467,0.65,0,1,0.54,0.4,0,0.738,,,,,,,,,0.471,0.72,0,1,,,,
53974,20091217,-96.61,39.1,0.481,0.77,0,1,0.472,0.69,0,1,0.546,0.42,0,0.881,,,,,,,,,0.477,0.76,0,1,,,,
53974,20091218,-96.61,39.1,0.489,0.81,0,1,0.479,0.74,0,1,0.552,0.45,0,0.988,,,,,,,,,0.484,0.82,0,1,,,,
53974,20091219,-96.61,39.1,0.495,0.84,0,1,0.485,0.79,0,1,0.556,0.49,0,1,,,,,,,,,0.49,0.87,0,1,,,,
53974,20091220,-96.61,39.1,0.498,0.86,0,1,0.488,0.83,0,1,0.558,0.51,0,1,,,,,,,,,0.493,0.89,0,1,,,,
53974,20091221,-96.61,39.1,0.498,0.86,0,1,0.489,0.84,0,1,0.559,0.54,0,1,,,,,,,,,0.494,0.88,0,1,,,,
53974,20091222,-96.61,39.1,0.498,0.86,0,1,0.49,0.86,0,1,0.56,0.57,0,1,,,,,,,,,0.494,0.88,0,1,,,,
53974,20091223,-96.61,39.1,0.5,0.87,0,1,0.492,0.87,0,1,0.56,0.59,0,1,,,,,,,,,0.496,0.89,0,1,,,,
53974,20091224,-96.61,39.1,0.503,0.89,0,1,0.495,0.89,0,1,0.562,0.62,0,1,,,,,,,,,0.499,0.9,0,1,,,,
53974,20091225,-96.61,39.1,0.503,0.89,0,1,0.495,0.89,0,1,0.562,0.64,0,1,,,,,,,,,0.499,0.9,0,1,,,,
53974,20091226,-96.61,39.1,0.504,0.89,0,1,0.495,0.89,0,1,0.563,0.65,0,1,,,,,,,,,0.499,0.9,0,1,,,,
53974,20091227,-96.61,39.1,0.505,0.89,0,1,0.495,0.88,0,1,0.563,0.65,0,1,,,,,,,,,0.5,0.89,0,1,,,,
53974,20091228,-96.61,39.1,0.505,0.89,0,1,0.495,0.88,0,1,0.563,0.66,0,1,,,,,,,,,0.5,0.89,0,1,,,,
53974,20091229,-96.61,39.1,0.506,0.9,0,1,0.495,0.88,0,1,0.563,0.66,0,1,,,,,,,,,0.501,0.88,0,1,,,,
53974,20091230,-96.61,39.1,0.507,0.9,0,1,0.495,0.87,0,1,0.564,0.67,0,1,,,,,,,,,0.501,0.87,0,1,,,,
53974,20091231,-96.61,39.1,0.506,0.89,0,1,0.495,0.86,0,1,0.565,0.68,0,1,,,,,,,,,0.5,0.85,0,1,,,,
53974,20100101,-96.61,39.1,0.506,0.88,0,1,0.495,0.86,0,1,0.565,0.68,0,1,,,,,,,,,0.5,0.84,0,1,,,,
53974,20100102,-96.61,39.1,0.503,0.86,0,1,0.493,0.85,0,1,0.565,0.68,0,1,,,,,,,,,0.498,0.8,0,1,,,,
53974,20100103,-96.61,39.1,0.497,0.81,0,1,0.488,0.81,0,1,0.564,0.67,0,1,,,,,,,,,0.493,0.76,0,1,,,,
53974,20100104,-96.61,39.1,0.491,0.76,0,1,0.484,0.78,0,1,0.56,0.65,0,0.994,,,,,,,,,0.487,0.71,0,1,,,,
53974,20100105,-96.61,39.1,0.484,0.71,0,1,0.479,0.74,0,1,0.555,0.63,0,0.958,,,,,,,,,0.482,0.66,0,1,,,,
53974,20100106,-96.61,39.1,0.478,0.66,0,1,0.475,0.7,0,1,0.549,0.6,0,0.929,,,,,,,,,0.477,0.61,0,1,,,,
53974,20100107,-96.61,39.1,0.472,0.61,0,1,0.47,0.66,0,1,0.544,0.57,0,0.899,,,,,,,,,0.471,0.56,0,1,,,,
53974,20100108,-96.61,39.1,0.465,0.56,0,1,0.463,0.6,0,1,0.539,0.54,0,0.833,,,,,,,,,0.464,0.51,0,1,,,,
53974,20100109,-96.61,39.1,0.462,0.53,0,1,0.458,0.56,0,0.988,0.532,0.51,0,0.744,,,,,,,,,0.46,0.47,0,1,,,,
53974,20100110,-96.61,39.1,0.46,0.51,0,1,0.454,0.53,0,0.94,0.528,0.49,0,0.631,,,,,,,,,0.457,0.45,0,0.917,,,,
53974,20100111,-96.61,39.1,0.459,0.5,0,0.988,0.45,0.5,0,0.869,0.525,0.48,0,0.518,,,,,,,,,0.455,0.43,0,0.798,,,,
53974,20100112,-96.61,39.1,0.459,0.49,0,0.976,0.447,0.48,0,0.869,0.523,0.47,0,0.417,,,,,,,,,0.453,0.41,0,0.72,,,,
53974,20100113,-96.61,39.1,0.458,0.47,0,0.976,0.444,0.46,0,0.869,0.522,0.47,0,0.351,,,,,,,,,0.451,0.4,0,0.696,,,,
53974,20100114,-96.61,39.1,0.462,0.49,0,0.976,0.445,0.47,0,0.868,0.524,0.49,0,0.371,,,,,,,,,0.454,0.41,0,0.695,,,,
53974,20100115,-96.61,39.1,0.468,0.51,0,0.976,0.451,0.51,0,0.867,0.528,0.52,0,0.434,,,,,,,,,0.459,0.45,0,0.693,,,,
53974,20100116,-96.61,39.1,0.472,0.53,0,0.976,0.458,0.57,0,0.88,0.534,0.56,0,0.524,,,,,,,,,0.465,0.49,0,0.693,,,,